Location: Isola Pescaroli
(45.0500°N, 10.1667°E)
Time: 01:47:37
(UTC+00:00)

SL-4 R/B - Pass Details

Date: 21 June 2021
Orbit: 428 x 662 km, 51.6° (Epoch: 29 July)

Event Time Altitude Azimuth Distance (km) Brightness Sun altitude
Rises 23:26:36 0° 277° (W) 2,680 5.6 -21.5°
Reaches altitude 10° 23:29:05 10° 288° (WNW) 1,744 4.8 -21.5°
Maximum altitude 23:32:37 31° 352° (N) 890 3.7 -21.5°
Drops below altitude 10° 23:35:55 10° 56° (NE) 1,631 4.9 -21.4°
Sets 23:38:10 0° 68° (ENE) 2,474 5.7 -21.4°
